Regional Weather Roundup
Issued by NWS Jackson, KY

Home | Current Version | Previous Version | Graphics & Text | Print | Product List | Glossary Off
Versions: 1 2 3 4 5 6 7 8 9 10 11 12 13 14 15 16 17 18 19 20 21 22 23 24 25 26 27 28 29 30 31 32 33 34 35 36 37 38 39 40 41 42 43 44 45 46 47 48 49 50

000
ASUS43 KJKL 251010
RWRJKL

EAST KENTUCKY HOURLY WEATHER ROUNDUP
NATIONAL WEATHER SERVICE JACKSON KY
500 AM EST SUN JAN 25 2015

NOTE: "FAIR" INDICATES FEW OR NO CLOUDS BELOW 12,000 FEET WITH
NO SIGNIFICANT WEATHER AND/OR OBSTRUCTIONS TO VISIBILITY.

* THESE REPORTS ARE NOT UNDER NWS QUALITY CONTROL AND MAY NOT
  REPORT WEATHER SUCH AS PRECIPITATION AND FOG.

KYZ079-080-083-085-087-088-110-112-115-119-120-251100
...EASTERN KENTUCKY...

CITY           SKY/WX    TMP DP  RH WIND       PRES   REMARKS
JACKSON        MOCLDY    34  29  82 S6        29.80F WCI  29
LONDON         CLEAR     34  26  72 S3        29.83F
SOMERSET*      CLOUDY    32  30  93 CALM      29.85S
MONTICELLO*    CLEAR     39  31  73 SW14      29.86F WCI  31
MIDDLESBORO*   CLEAR     25  24  97 CALM      29.87S FOG
HARLAN APT*    CLOUDY    28  28 100 CALM      29.84F VSB 3/4
HAZARD APT*    SUNNY     36  30  80 S5        29.81F WCI  32
BLACK MTN*       N/A     28  27  93 SW2         N/A
PIKEVILLE APT* CLEAR     36  28  75 S5        29.81F WCI  32
BIG SANDY*     PTSUNNY   37  31  80 S5        29.81S WCI  33
MOREHEAD APT*  PTSUNNY   37  30  75 CALM      29.80F
$$

KYZ035-036-041-042-044-050-067-078-099-251100
...CENTRAL KENTUCKY...

CITY           SKY/WX    TMP DP  RH WIND       PRES   REMARKS
MT STERLING*   CLOUDY    34  32  93 SW8       29.79F WCI  27
FLEMING/MASON* CLOUDY    33  31  90 S8        29.78F WCI  26
DANVILLE*      MOCLDY    34  32  93 SW14      29.81S WCI  24
RICHMOND*      MOCLDY    36  30  80 S12       29.79S WCI  27
LEXINGTON      CLOUDY    35  30  82 S9        29.78F WCI  28
FRANKFORT      CLOUDY    37  30  75 SW10      29.76F WCI  30
$$

KYZ091>093-OHZ055-061-077-WVZ005-015-034-035-042-251100
...SOUTHERN OHIO/WEST VIRGINIA...

CITY           SKY/WX    TMP DP  RH WIND       PRES   REMARKS
COVINGTON      CLOUDY    36  30  79 S9        29.73F WCI  29
COLUMBUS       CLOUDY    34  29  82 S6        29.75S WCI  29
DAYTON         CLOUDY    35  30  82 S8        29.72F WCI  29
WILMINGTON     MOCLDY    31  27  85 S8        29.74S FOG     WCI  23
HUNTINGTON     MOCLDY    33  31  92 S6        29.80F WCI  28
CHARLESTON     CLOUDY    34  30  85 SW3       29.81F
PINEVILLE*     PTCLDY    31  31 100 MISG      29.86F FOG
BECKLEY        CLOUDY    31  28  89 SW6       29.78F WCI  25
BLUEFIELD      CLOUDY    30  26  85 W6        29.79S WCI  24
$$

VAZ002-007-008-TNZ017-027-036-066-071-251100
...SOUTHWEST VIRGINIA/EAST TENNESSEE...

CITY           SKY/WX    TMP DP  RH WIND       PRES   REMARKS
WISE*          CLEAR     32  27  80 SW10      29.81S WCI  24
JONESVILLE*    SUNNY     25  25 100 CALM      29.90S
ABINGDON*      CLEAR     31  28  88 CALM      29.86S
BRISTOL        CLEAR     27  24  89 CALM      29.89S
KNOXVILLE      PTCLDY    34  28  79 S10       29.90F WCI  26
OAK RIDGE      CLEAR     30  27  88 SW3       29.92S
CROSSVILLE     CLEAR     33  27  78 S5        29.86F WCI  29
NASHVILLE      MOCLDY    38  31  76 S10       29.84F WCI  31
$$

...KEY TO REMARKS...
VSB - VISIBILITY IN MILES
WCI - WIND CHILL INDEX
HX  - HEAT INDEX

$$



USA.gov is the U.S. government's official web portal to all federal, state and local government web resources and services.